Home   Weather   Moncton   Past weeks
Flag for Canada

Past Weather in Moncton, New Brunswick, Canada — March 2019

Now
27 °F

Clear.


Feels Like: 20 °F
Forecast: 42 / 23 °F
Wind: 6 mph from South

Location: Moncton

Current Time: Feb 24, 2020 at 5:13:15 am

Latest Report: Feb 24, 2020 at 4:00 am


Visibility: 15 mi

Pressure: 30.06 "Hg

Humidity: 93%

Dew Point: 25 °F

Location of MonctonLocation

March 2019 Weather in Moncton — Graph

°F

High & Low Weather Summary for March 2019

 TemperatureHumidityPressure
High63 °F (Mar 31, 3:00 pm)100% (Mar 11, 6:00 am)30.60 "Hg (Mar 11, 6:00 am)
Low-4 °F (Mar 8, 6:00 am)25% (Mar 27, 4:00 pm)28.98 "Hg (Mar 23, 7:00 am)
Average29 °F69%29.94 "Hg
* Reported Mar 1 12:00 am — Mar 31 11:49 pm, Moncton. Weather by CustomWeather, © 2020

Note: Actual official high and low records may vary slightly from our data, if they occured in-between our weather recording intervals... More about our weather records

Moncton Weather History for March 1, 2019

Scroll right to see more
 ConditionsComfort  
Time TempWeatherWind HumidityBarometerVisibility
12:00 am
Fri, Mar 1
9 °FClear.13 mph61%30.08 "Hg15 mi
1:00 am9 °FClear.14 mph61%30.10 "Hg15 mi
2:00 am9 °FClear.16 mph61%30.12 "Hg15 mi
3:00 am9 °FClear.14 mph61%30.14 "Hg15 mi
4:00 am9 °FClear.13 mph61%30.15 "Hg15 mi
5:00 am7 °FClear.12 mph66%30.17 "Hg15 mi
6:00 am7 °FClear.12 mph66%30.20 "Hg15 mi
7:00 am7 °FPassing clouds.13 mph66%30.22 "Hg15 mi
8:00 am9 °FSunny.12 mph66%30.24 "Hg15 mi
9:00 am12 °FPassing clouds.13 mph57%30.26 "Hg15 mi
10:00 am16 °FPassing clouds.13 mph53%30.27 "Hg15 mi
11:00 am21 °FPassing clouds.13 mph45%30.27 "Hg15 mi
12:00 pm23 °FPassing clouds.14 mph46%30.27 "Hg15 mi
1:00 pm27 °FPassing clouds.15 mph43%30.25 "Hg15 mi
2:00 pm28 °FPassing clouds.21 mph34%30.23 "Hg15 mi
3:00 pm30 °FPassing clouds.22 mph31%30.22 "Hg15 mi
4:00 pm28 °FSunny.18 mph34%30.22 "Hg15 mi
5:00 pm28 °FSunny.21 mph31%30.22 "Hg15 mi
6:00 pm27 °FPassing clouds.13 mph36%30.22 "Hg15 mi
7:00 pm25 °FClear.8 mph39%30.23 "Hg15 mi
8:00 pm23 °FClear.9 mph46%30.24 "Hg15 mi
9:00 pm23 °FClear.8 mph50%30.24 "Hg15 mi
10:00 pm21 °FClear.9 mph58%30.25 "Hg15 mi
11:00 pm19 °FClear.8 mph68%30.26 "Hg15 mi
Weather by CustomWeather, © 2020

See weather overview

Advertising